Find Starlink 31057

NORAD ID: 58545 Int'l Des: 2023-192 Owner: SPXS Country: US Constellation: starlink operational
LEOCIRCULAR

Current View

Loading 3D Globe...

About Starlink 31057

Starlink 31057 (NORAD 58545) is a starlink constellation satellite (v2 mini) launched Dec 8, 2023 by SPXS of US. It operates in LEO, CIRCULAR orbit with a mass of 730.00 kg.

About Starlink 31057

Description loading...

Upcoming Passes

Passes for default location (London). Set your location on the main map for personalized predictions.

Altitude History

Loading altitude history...

Two-Line Element Set

1 58545U 23192Q 26171.41548409 -.00000033 00000-0 10159-4 0 9993
2 58545 53.1612 304.1412 0001315 93.7686 266.3467 15.34381184141739
Epoch: Jun 20, 2026 • Age: 23 hours

Current Status

Altitude 478.5 km
Velocity 7.63 km/s
Sub-Earth Point -44.13°S, 153.62°W
Launch Date Dec 8, 2023
Age 2.5 years
Type internet

Technical Details

Classification Payload
Mass 730.00 kg
Dry Mass 700.00 kg
Total Mass 730.00 kg
Length 0.30 m
Diameter 4.10 m
Span 29.00 m
Shape Box + pan
Manufacturer SPXS
Bus Type Starlink V2M
Phase Status In Orbit
Owner/State SPXS/US

Most Searched